| time (UTC) | temp C | wind direction | speed KPH | gust KPH | rain 1hr cm | rain 24hr cm | rain mn cm | humidity % | barometer mb |
| 20260508074520 | 7 | 154 | 0.0 | 1.6 | 0.00 | 0.00 | 0.00 | 82 | 1013.5 |
| 20260508073015 | 7 | 154 | 0.0 | 1.6 | 0.00 | 0.00 | 0.00 | 81 | 1013.5 |
| 20260508071514 | 7 | 154 | 0.0 | 6.4 | 0.00 | 0.00 | 0.00 | 80 | 1013.6 |
| 20260508070012 | 8 | 154 | 0.0 | 6.4 | 0.00 | 0.00 | 0.00 | 73 | 1013.9 |
| 20260508064512 | 7 | 153 | 0.0 | 1.6 | 0.00 | 0.00 | 0.00 | 75 | 1013.7 |
| 20260508063010 | 6 | 154 | 0.0 | 0.0 | 0.00 | 0.00 | 0.00 | 77 | 1013.7 |
| 20260508061509 | 6 | 153 | 0.0 | 0.0 | 0.00 | 0.00 | 0.00 | 78 | 1013.7 |
| 20260508060007 | 6 | 154 | 0.0 | 0.0 | 0.00 | 0.00 | 0.00 | 78 | 1013.8 |
| 20260508054505 | 6 | 154 | 0.0 | 0.0 | 0.00 | 0.00 | 0.00 | 77 | 1013.9 |
| 20260508053003 | 7 | 154 | 0.0 | 0.0 | 0.00 | 0.00 | 0.00 | 75 | 1014.2 |
| 20260508051501 | 7 | 154 | 0.0 | 0.0 | 0.00 | 0.00 | 0.00 | 74 | 1014.1 |
| 20260508050100 | 7 | 154 | 0.0 | 0.0 | 0.00 | 0.00 | 0.00 | 73 | 1014.4 |
| 20260508044603 | 7 | 154 | 0.0 | 0.0 | 0.00 | 0.00 | 0.00 | 72 | 1014.3 |
| 20260508043055 | 7 | 154 | 0.0 | 0.0 | 0.00 | 0.00 | 0.00 | 71 | 1014.2 |
| 20260508041559 | 7 | 153 | 0.0 | 1.6 | 0.00 | 0.00 | 0.00 | 71 | 1014.3 |
| 20260508040057 | 7 | 154 | 0.0 | 1.6 | 0.00 | 0.00 | 0.00 | 70 | 1014.4 |
| 20260508034601 | 7 | 154 | 0.0 | 1.6 | 0.00 | 0.00 | 0.00 | 70 | 1014.5 |
| 20260508033051 | 6 | 154 | 0.0 | 3.2 | 0.00 | 0.00 | 0.00 | 74 | 1014.4 |
| 20260508031559 | 4 | 154 | 0.0 | 0.0 | 0.00 | 0.00 | 0.00 | 81 | 1014.5 |
| 20260508030107 | 5 | 154 | 0.0 | 0.0 | 0.00 | 0.00 | 0.00 | 79 | 1014.4 |
| 20260508024549 | 5 | 154 | 0.0 | 0.0 | 0.00 | 0.00 | 0.00 | 77 | 1014.3 |
| 20260508023049 | 5 | 154 | 0.0 | 0.0 | 0.00 | 0.00 | 0.00 | 76 | 1014.0 |
| 20260508021549 | 5 | 154 | 0.0 | 0.0 | 0.00 | 0.00 | 0.00 | 75 | 1014.1 |
| 20260508020048 | 5 | 154 | 0.0 | 0.0 | 0.00 | 0.00 | 0.00 | 74 | 1014.1 |
| 20260508014547 | 6 | 154 | 0.0 | 0.0 | 0.00 | 0.00 | 0.00 | 72 | 1014.0 |
| 20260508013146 | 6 | 154 | 0.0 | 0.0 | 0.00 | 0.00 | 0.00 | 68 | 1014.0 |
| 20260508011554 | 7 | 154 | 0.0 | 0.0 | 0.00 | 0.00 | 0.00 | 66 | 1013.9 |
| 20260508010046 | 7 | 154 | 0.0 | 0.0 | 0.00 | 0.00 | 0.00 | 62 | 1013.7 |
| 20260508004544 | 8 | 154 | 0.0 | 0.0 | 0.00 | 0.00 | 0.00 | 59 | 1013.7 |
| 20260508003058 | 10 | 153 | 0.0 | 3.2 | 0.00 | 0.00 | 0.00 | 55 | 1013.5 |
| 20260508001544 | 10 | 154 | 0.0 | 1.6 | 0.00 | 0.00 | 0.00 | 54 | 1013.4 |
| 20260508000044 | 11 | 153 | 0.0 | 3.2 | 0.00 | 0.00 | 0.00 | 53 | 1013.1 |
| 20260507234542 | 11 | 154 | 1.6 | 8.0 | 0.00 | 0.00 | 0.00 | 51 | 1013.1 |
| 20260507233042 | 12 | 154 | 0.0 | 6.4 | 0.00 | 0.00 | 0.00 | 49 | 1013.1 |
| 20260507231551 | 12 | 154 | 1.6 | 6.4 | 0.00 | 0.00 | 0.00 | 49 | 1013.1 |
| 20260507230041 | 12 | 154 | 1.6 | 8.0 | 0.00 | 0.00 | 0.00 | 50 | 1013.2 |
| 20260507224554 | 13 | 154 | 1.6 | 8.0 | 0.00 | 0.00 | 0.00 | 49 | 1013.3 |
| 20260507223045 | 12 | 154 | 1.6 | 8.0 | 0.00 | 0.00 | 0.00 | 51 | 1013.3 |
| 20260507221542 | 12 | 154 | 1.6 | 6.4 | 0.00 | 0.00 | 0.00 | 53 | 1013.2 |
| 20260507220039 | 12 | 153 | 1.6 | 6.4 | 0.00 | 0.00 | 0.00 | 55 | 1013.1 |
| 20260507214540 | 12 | 153 | 3.2 | 8.0 | 0.00 | 0.00 | 0.00 | 56 | 1013.0 |
| 20260507213046 | 12 | 154 | 3.2 | 11.3 | 0.00 | 0.00 | 0.00 | 56 | 1012.8 |
| 20260507211537 | 13 | 154 | 1.6 | 12.9 | 0.00 | 0.00 | 0.00 | 51 | 1012.6 |
| 20260507210105 | 14 | 154 | 3.2 | 12.9 | 0.00 | 0.00 | 0.00 | 49 | 1012.4 |
| 20260507204535 | 13 | 154 | 3.2 | 12.9 | 0.00 | 0.00 | 0.00 | 48 | 1012.4 |
| 20260507203035 | 13 | 154 | 4.8 | 12.9 | 0.00 | 0.00 | 0.00 | 50 | 1012.4 |
| 20260507201536 | 14 | 154 | 3.2 | 9.7 | 0.00 | 0.00 | 0.00 | 50 | 1012.5 |
| 20260507200050 | 15 | 153 | 1.6 | 11.3 | 0.00 | 0.00 | 0.00 | 49 | 1012.3 |
| 20260507194532 | 15 | 153 | 1.6 | 6.4 | 0.00 | 0.00 | 0.00 | 50 | 1012.4 |
| 20260507193054 | 15 | 154 | 1.6 | 8.0 | 0.00 | 0.00 | 0.00 | 49 | 1012.6 |
| 20260507191530 | 15 | 154 | 1.6 | 12.9 | 0.00 | 0.00 | 0.00 | 51 | 1012.7 |
| 20260507190033 | 15 | 154 | 3.2 | 8.0 | 0.00 | 0.00 | 0.00 | 50 | 1012.7 |
| 20260507184524 | 13 | 154 | 1.6 | 11.3 | 0.00 | 0.00 | 0.00 | 53 | 1013.0 |
| 20260507183035 | 13 | 153 | 1.6 | 8.0 | 0.00 | 0.00 | 0.00 | 49 | 1013.0 |
| 20260507181524 | 14 | 154 | 3.2 | 11.3 | 0.00 | 0.00 | 0.00 | 49 | 1013.0 |
| 20260507180026 | 15 | 154 | 1.6 | 11.3 | 0.00 | 0.00 | 0.00 | 53 | 1013.0 |
| 20260507174522 | 15 | 153 | 1.6 | 6.4 | 0.00 | 0.00 | 0.00 | 51 | 1013.1 |
| 20260507173021 | 14 | 154 | 1.6 | 11.3 | 0.00 | 0.00 | 0.00 | 51 | 1013.0 |
| 20260507171520 | 14 | 154 | 1.6 | 8.0 | 0.00 | 0.00 | 0.00 | 52 | 1013.1 |
| 20260507170019 | 15 | 154 | 3.2 | 9.7 | 0.00 | 0.00 | 0.00 | 49 | 1013.2 |
| 20260507164517 | 15 | 154 | 0.0 | 8.0 | 0.00 | 0.00 | 0.00 | 54 | 1013.2 |
| 20260507163016 | 14 | 154 | 0.0 | 4.8 | 0.00 | 0.00 | 0.00 | 51 | 1013.4 |
| 20260507161519 | 13 | 154 | 3.2 | 12.9 | 0.00 | 0.00 | 0.00 | 57 | 1013.2 |
| 20260507160027 | 14 | 154 | 3.2 | 6.4 | 0.00 | 0.00 | 0.00 | 49 | 1013.2 |
| 20260507154514 | 13 | 154 | 1.6 | 8.0 | 0.00 | 0.00 | 0.00 | 53 | 1013.5 |
| 20260507153018 | 14 | 154 | 1.6 | 8.0 | 0.00 | 0.00 | 0.00 | 55 | 1013.3 |
| 20260507151509 | 14 | 154 | 1.6 | 9.7 | 0.00 | 0.00 | 0.00 | 52 | 1013.5 |
| 20260507150006 | 13 | 154 | 0.0 | 3.2 | 0.00 | 0.00 | 0.00 | 61 | 1013.5 |
| 20260507144508 | 13 | 154 | 0.0 | 6.4 | 0.00 | 0.00 | 0.00 | 58 | 1013.6 |
| 20260507143002 | 13 | 154 | 1.6 | 6.4 | 0.00 | 0.00 | 0.00 | 60 | 1013.6 |
| 20260507141619 | 12 | 154 | 0.0 | 4.8 | 0.00 | 0.00 | 0.00 | 64 | 1013.7 |
| 20260507140106 | 11 | 154 | 1.6 | 3.2 | 0.00 | 0.00 | 0.00 | 65 | 1014.0 |
| 20260507134603 | 11 | 154 | 0.0 | 4.8 | 0.00 | 0.00 | 0.00 | 71 | 1014.2 |
| 20260507133050 | 10 | 154 | 0.0 | 4.8 | 0.00 | 0.00 | 0.00 | 71 | 1014.3 |
| 20260507131547 | 10 | 154 | 0.0 | 3.2 | 0.00 | 0.00 | 0.00 | 74 | 1014.1 |
| 20260507130044 | 8 | 154 | 0.0 | 1.6 | 0.00 | 0.00 | 0.00 | 78 | 1014.2 |
| 20260507124538 | 7 | 154 | 0.0 | 4.8 | 0.00 | 0.00 | 0.00 | 82 | 1014.3 |
| 20260507123042 | 6 | 154 | 0.0 | 3.2 | 0.00 | 0.00 | 0.00 | 94 | 1014.1 |
| 20260507121532 | 5 | 154 | 0.0 | 0.0 | 0.00 | 0.00 | 0.00 | 95 | 1014.2 |
| 20260507120031 | 4 | 154 | 0.0 | 0.0 | 0.00 | 0.00 | 0.00 | 94 | 1014.2 |
| 20260507114528 | 3 | 154 | 0.0 | 0.0 | 0.00 | 0.00 | 0.00 | 94 | 1014.3 |
| 20260507113030 | 2 | 154 | 0.0 | 0.0 | 0.00 | 0.00 | 0.00 | 94 | 1014.2 |
| 20260507111526 | -17 | 0.0 | 0.0 | 0.00 | 0.00 | 0.00 | 1014.0 | ||
| 20260507110023 | -17 | 0.0 | 0.0 | 0.00 | 0.00 | 0.00 | 1014.0 | ||
| 20260507104516 | -17 | 0.0 | 0.0 | 0.00 | 0.00 | 0.00 | 1013.8 | ||
| 20260507103014 | -17 | 0.0 | 0.0 | 0.00 | 0.00 | 0.00 | 1013.7 | ||
| 20260507101515 | -17 | 143 | 0.0 | 0.0 | 0.00 | 0.00 | 0.00 | 1013.6 | |
| 20260507100008 | 2 | 154 | 0.0 | 0.0 | 0.00 | 0.05 | 0.00 | 93 | 1013.5 |
| 20260507094506 | 2 | 154 | 0.0 | 0.0 | 0.00 | 0.05 | 0.00 | 93 | 1013.4 |
| 20260507093006 | 2 | 154 | 0.0 | 0.0 | 0.00 | 0.05 | 0.00 | 93 | 1013.5 |
| 20260507091504 | 1 | 154 | 0.0 | 0.0 | 0.00 | 0.05 | 0.00 | 93 | 1013.5 |
| 20260507090002 | 1 | 154 | 0.0 | 0.0 | 0.00 | 0.18 | 0.00 | 92 | 1013.6 |
| 20260507084501 | 1 | 154 | 0.0 | 0.0 | 0.00 | 0.18 | 0.00 | 92 | 1013.8 |
| 20260507083002 | 1 | 154 | 0.0 | 0.0 | 0.00 | 0.18 | 0.00 | 92 | 1013.7 |
| 20260507081602 | 1 | 154 | 0.0 | 0.0 | 0.00 | 0.18 | 0.00 | 91 | 1013.7 |
| 20260507080058 | 1 | 154 | 0.0 | 0.0 | 0.00 | 0.48 | 0.00 | 91 | 1013.9 |